| time (UTC) | temp F | wind direction | speed MPH | gust MPH | rain 1hr in | rain 24hr in | rain mn in | humidity % | barometer mb |
| 20260905191536 | 98 | 281 | 2.0 | 6.0 | 0.00 | 0.00 | 0.00 | 47 | 1014.1 |
| 20260905190050 | 96 | 321 | 1.0 | 9.0 | 0.00 | 0.00 | 0.00 | 46 | 1014.3 |
| 20260905190031 | 97 | 322 | 1.0 | 8.0 | 0.00 | 0.00 | 0.00 | 46 | 1013.0 |
| 20260905184546 | 96 | 302 | 2.0 | 6.0 | 0.00 | 0.00 | 0.00 | 49 | 1014.4 |
| 20260905183039 | 97 | 0 | 2.0 | 5.0 | 0.00 | 0.00 | 0.00 | 45 | 1014.6 |
| 20260905181535 | 96 | 0 | 0.0 | 7.0 | 0.00 | 0.00 | 0.00 | 49 | 1014.7 |
| 20260905180035 | 95 | 0 | 1.0 | 6.0 | 0.00 | 0.00 | 0.00 | 49 | 1015.1 |
| 20260905180018 | 95 | 105 | 1.0 | 5.0 | 0.00 | 0.00 | 0.00 | 49 | 1013.9 |
| 20260905174544 | 94 | 301 | 0.0 | 3.0 | 0.00 | 0.00 | 0.00 | 54 | 1015.2 |
| 20260905173038 | 95 | 0 | 0.0 | 4.0 | 0.00 | 0.00 | 0.00 | 53 | 1015.3 |
| 20260905171533 | 94 | 253 | 1.0 | 4.0 | 0.00 | 0.00 | 0.00 | 53 | 1015.5 |
| 20260905170035 | 94 | 0 | 1.0 | 3.0 | 0.00 | 0.00 | 0.00 | 57 | 1015.7 |
| 20260905170015 | 94 | 285 | 1.0 | 3.0 | 0.00 | 0.00 | 0.00 | 57 | 1014.5 |
| 20260905164536 | 93 | 0 | 0.0 | 3.0 | 0.00 | 0.00 | 0.00 | 57 | 1015.7 |
| 20260905163034 | 91 | 0 | 0.0 | 3.0 | 0.00 | 0.00 | 0.00 | 59 | 1015.7 |
| 20260905161534 | 90 | 0 | 1.0 | 7.0 | 0.00 | 0.00 | 0.00 | 60 | 1015.7 |
| 20260905160035 | 89 | 0 | 0.0 | 4.0 | 0.00 | 0.00 | 0.00 | 64 | 1015.6 |
| 20260905160015 | 90 | 292 | 0.0 | 3.0 | 0.00 | 0.00 | 0.00 | 65 | 1014.4 |
| 20260905154536 | 88 | 296 | 1.0 | 4.0 | 0.00 | 0.00 | 0.00 | 65 | 1015.4 |
| 20260905153037 | 86 | 174 | 1.0 | 4.0 | 0.00 | 0.00 | 0.00 | 71 | 1015.3 |
| 20260905151538 | 85 | 224 | 1.0 | 4.0 | 0.00 | 0.00 | 0.00 | 73 | 1015.2 |
| 20260905150045 | 83 | 227 | 0.0 | 3.0 | 0.00 | 0.00 | 0.00 | 76 | 1014.0 |
| 20260905150035 | 83 | 0 | 0.0 | 3.0 | 0.00 | 0.00 | 0.00 | 76 | 1015.1 |
| 20260905144540 | 81 | 0 | 0.0 | 3.0 | 0.00 | 0.00 | 0.00 | 77 | 1015.0 |
| 20260905143035 | 80 | 277 | 1.0 | 3.0 | 0.00 | 0.00 | 0.00 | 78 | 1014.9 |
| 20260905141542 | 78 | 0 | 0.0 | 3.0 | 0.00 | 0.00 | 0.00 | 83 | 1015.0 |
| 20260905140034 | 76 | 0 | 0.0 | 2.0 | 0.00 | 0.00 | 0.00 | 91 | 1015.0 |
| 20260905140025 | 77 | 276 | 0.0 | 2.0 | 0.00 | 0.00 | 0.00 | 91 | 1013.9 |
| 20260905134538 | 74 | 276 | 0.0 | 2.0 | 0.00 | 0.00 | 0.00 | 95 | 1014.9 |
| 20260905133034 | 73 | 0 | 0.0 | 0.0 | 0.00 | 0.00 | 0.00 | 95 | 1014.6 |
| 20260905131549 | 73 | 0 | 0.0 | 0.0 | 0.00 | 0.00 | 0.00 | 96 | 1014.5 |
| 20260905130057 | 73 | 277 | 0.0 | 1.0 | 0.00 | 0.00 | 0.00 | 96 | 1013.3 |
| 20260905130038 | 72 | 0 | 0.0 | 1.0 | 0.00 | 0.00 | 0.00 | 96 | 1014.3 |
| 20260905124546 | 72 | 0 | 0.0 | 1.0 | 0.00 | 0.00 | 0.00 | 95 | 1014.2 |
| 20260905123045 | 71 | 0 | 0.0 | 1.0 | 0.00 | 0.00 | 0.00 | 95 | 1014.1 |
| 20260905121535 | 71 | 0 | 0.0 | 1.0 | 0.00 | 0.00 | 0.00 | 95 | 1014.0 |
| 20260905120035 | 71 | 0 | 0.0 | 0.0 | 0.00 | 0.00 | 0.00 | 95 | 1013.8 |
| 20260905120026 | 71 | 276 | 0.0 | 0.0 | 0.00 | 0.00 | 0.00 | 96 | 1012.8 |
| 20260905114541 | 71 | 0 | 0.0 | 1.0 | 0.00 | 0.00 | 0.00 | 95 | 1013.7 |
| 20260905113041 | 71 | 0 | 0.0 | 2.0 | 0.00 | 0.00 | 0.00 | 95 | 1013.6 |
| 20260905111546 | 71 | 0 | 0.0 | 0.0 | 0.00 | 0.00 | 0.00 | 95 | 1013.5 |
| 20260905110034 | 71 | 0 | 0.0 | 0.0 | 0.00 | 0.00 | 0.00 | 94 | 1013.4 |
| 20260905110019 | 71 | 276 | 0.0 | 0.0 | 0.00 | 0.00 | 0.00 | 95 | 1012.4 |
| 20260905104533 | 71 | 0 | 0.0 | 0.0 | 0.00 | 0.00 | 0.00 | 95 | 1013.3 |
| 20260905103036 | 71 | 0 | 0.0 | 0.0 | 0.00 | 0.00 | 0.00 | 95 | 1013.3 |
| 20260905101541 | 70 | 0 | 0.0 | 0.0 | 0.00 | 0.00 | 0.00 | 94 | 1013.2 |
| 20260905100034 | 71 | 0 | 0.0 | 0.0 | 0.00 | 0.00 | 0.00 | 94 | 1013.1 |
| 20260905100031 | 71 | 276 | 0.0 | 0.0 | 0.00 | 0.00 | 0.00 | 94 | 1012.1 |
| 20260905094536 | 71 | 0 | 0.0 | 0.0 | 0.00 | 0.00 | 0.00 | 94 | 1013.2 |
| 20260905093036 | 71 | 0 | 0.0 | 0.0 | 0.00 | 0.00 | 0.00 | 93 | 1013.4 |
| 20260905091538 | 71 | 0 | 0.0 | 0.0 | 0.00 | 0.00 | 0.00 | 94 | 1013.4 |
| 20260905090041 | 72 | 276 | 0.0 | 0.0 | 0.00 | 0.00 | 0.00 | 94 | 1012.4 |
| 20260905090037 | 71 | 0 | 0.0 | 0.0 | 0.00 | 0.00 | 0.00 | 94 | 1013.3 |
| 20260905084556 | 71 | 0 | 0.0 | 1.0 | 0.00 | 0.00 | 0.00 | 94 | 1013.3 |
| 20260905083034 | 71 | 0 | 0.0 | 0.0 | 0.00 | 0.00 | 0.00 | 93 | 1013.3 |
| 20260905081535 | 71 | 0 | 0.0 | 0.0 | 0.00 | 0.00 | 0.00 | 93 | 1013.3 |
| 20260905080056 | 72 | 276 | 0.0 | 0.0 | 0.00 | 0.00 | 0.00 | 93 | 1012.2 |
| 20260905080035 | 72 | 0 | 0.0 | 0.0 | 0.00 | 0.00 | 0.00 | 93 | 1013.2 |
| 20260905074537 | 72 | 0 | 0.0 | 0.0 | 0.00 | 0.00 | 0.00 | 92 | 1013.3 |
| 20260905073037 | 72 | 0 | 0.0 | 0.0 | 0.00 | 0.00 | 0.00 | 92 | 1013.3 |
| 20260905071535 | 72 | 0 | 0.0 | 0.0 | 0.00 | 0.00 | 0.00 | 92 | 1013.3 |
| 20260905070038 | 72 | 0 | 0.0 | 0.0 | 0.00 | 0.00 | 0.00 | 92 | 1013.5 |
| 20260905070022 | 73 | 276 | 0.0 | 0.0 | 0.00 | 0.00 | 0.00 | 92 | 1012.5 |
| 20260905064538 | 73 | 0 | 0.0 | 0.0 | 0.00 | 0.00 | 0.00 | 92 | 1013.6 |
| 20260905063034 | 73 | 0 | 0.0 | 0.0 | 0.00 | 0.00 | 0.00 | 91 | 1013.7 |
| 20260905061539 | 73 | 0 | 0.0 | 0.0 | 0.00 | 0.00 | 0.00 | 91 | 1013.6 |
| 20260905060036 | 74 | 0 | 0.0 | 1.0 | 0.00 | 0.00 | 0.00 | 91 | 1013.7 |
| 20260905060022 | 74 | 276 | 0.0 | 1.0 | 0.00 | 0.00 | 0.00 | 92 | 1012.6 |
| 20260905054536 | 74 | 0 | 0.0 | 0.0 | 0.00 | 0.00 | 0.00 | 91 | 1013.6 |
| 20260905053036 | 74 | 0 | 0.0 | 0.0 | 0.00 | 0.00 | 0.00 | 91 | 1013.5 |
| 20260905051539 | 74 | 0 | 0.0 | 0.0 | 0.00 | 0.00 | 0.00 | 90 | 1013.6 |
| 20260905050036 | 75 | 0 | 0.0 | 0.0 | 0.00 | 0.00 | 0.00 | 90 | 1013.7 |
| 20260905050032 | 75 | 276 | 0.0 | 0.0 | 0.00 | 0.00 | 0.00 | 90 | 1012.5 |
| 20260905044537 | 75 | 0 | 0.0 | 0.0 | 0.00 | 0.00 | 0.00 | 89 | 1013.6 |
| 20260905043034 | 75 | 0 | 0.0 | 0.0 | 0.00 | 0.00 | 0.00 | 89 | 1013.6 |
| 20260905041537 | 76 | 0 | 0.0 | 0.0 | 0.00 | 0.00 | 0.00 | 89 | 1013.6 |
| 20260905040037 | 76 | 0 | 0.0 | 0.0 | 0.00 | 0.00 | 0.00 | 88 | 1013.6 |
| 20260905040026 | 77 | 276 | 0.0 | 0.0 | 0.00 | 0.00 | 0.00 | 89 | 1012.4 |
| 20260905034544 | 77 | 0 | 0.0 | 0.0 | 0.00 | 0.00 | 0.00 | 88 | 1013.6 |
| 20260905033036 | 78 | 0 | 0.0 | 0.0 | 0.00 | 0.00 | 0.00 | 88 | 1013.4 |
| 20260905031538 | 78 | 0 | 0.0 | 2.0 | 0.00 | 0.00 | 0.00 | 88 | 1013.2 |
| 20260905030038 | 79 | 0 | 0.0 | 0.0 | 0.00 | 0.00 | 0.00 | 87 | 1013.1 |
| 20260905030022 | 79 | 215 | 0.0 | 0.0 | 0.00 | 0.00 | 0.00 | 87 | 1012.0 |
| 20260905024539 | 79 | 0 | 0.0 | 0.0 | 0.00 | 0.00 | 0.00 | 85 | 1013.1 |
| 20260905023037 | 79 | 0 | 0.0 | 0.0 | 0.00 | 0.00 | 0.00 | 82 | 1012.9 |
| 20260905021542 | 80 | 0 | 0.0 | 0.0 | 0.00 | 0.00 | 0.00 | 81 | 1012.8 |
| 20260905020042 | 81 | 0 | 0.0 | 0.0 | 0.00 | 0.00 | 0.00 | 78 | 1012.6 |
| 20260905020031 | 82 | 215 | 0.0 | 0.0 | 0.00 | 0.00 | 0.00 | 78 | 1011.5 |
| 20260905014535 | 82 | 0 | 0.0 | 0.0 | 0.00 | 0.00 | 0.00 | 76 | 1012.5 |
| 20260905013036 | 84 | 0 | 0.0 | 0.0 | 0.00 | 0.00 | 0.00 | 74 | 1012.2 |
| 20260905011541 | 85 | 0 | 0.0 | 0.0 | 0.00 | 0.00 | 0.00 | 70 | 1012.1 |
| 20260905010037 | 87 | 0 | 0.0 | 0.0 | 0.00 | 0.00 | 0.00 | 67 | 1012.1 |
| 20260905010023 | 87 | 215 | 0.0 | 0.0 | 0.00 | 0.00 | 0.00 | 68 | 1010.9 |
| 20260905004537 | 88 | 0 | 0.0 | 1.0 | 0.00 | 0.00 | 0.00 | 67 | 1012.0 |
| 20260905003035 | 90 | 0 | 0.0 | 1.0 | 0.00 | 0.00 | 0.00 | 60 | 1012.0 |
| 20260905001536 | 92 | 0 | 0.0 | 1.0 | 0.00 | 0.00 | 0.00 | 57 | 1012.1 |
| 20260905000035 | 94 | 269 | 0.0 | 2.0 | 0.00 | 0.00 | 0.00 | 57 | 1011.0 |
| 20260904234543 | 94 | 223 | 1.0 | 4.0 | 0.00 | 0.00 | 0.00 | 52 | 1012.1 |
| 20260904233052 | 95 | 268 | 2.0 | 8.0 | 0.00 | 0.00 | 0.00 | 50 | 1012.1 |
| 20260904231535 | 95 | 262 | 2.0 | 7.0 | 0.00 | 0.00 | 0.00 | 50 | 1012.2 |
| 20260904230035 | 95 | 266 | 3.0 | 8.0 | 0.00 | 0.00 | 0.00 | 48 | 1012.3 |
| 20260904230022 | 96 | 265 | 3.0 | 7.0 | 0.00 | 0.00 | 0.00 | 49 | 1011.1 |
| 20260904224545 | 96 | 259 | 3.0 | 9.0 | 0.00 | 0.00 | 0.00 | 49 | 1012.3 |
| 20260904223041 | 96 | 248 | 2.0 | 11.0 | 0.00 | 0.00 | 0.00 | 48 | 1012.2 |
| 20260904221537 | 96 | 267 | 2.0 | 10.0 | 0.00 | 0.00 | 0.00 | 50 | 1012.3 |
| 20260904220036 | 96 | 268 | 3.0 | 9.0 | 0.00 | 0.00 | 0.00 | 49 | 1012.3 |
| 20260904214543 | 96 | 271 | 3.0 | 11.0 | 0.00 | 0.00 | 0.00 | 50 | 1012.4 |
| 20260904213037 | 96 | 256 | 2.0 | 8.0 | 0.00 | 0.00 | 0.00 | 49 | 1012.6 |
| 20260904211537 | 96 | 278 | 4.0 | 10.0 | 0.00 | 0.00 | 0.00 | 48 | 1012.7 |
| 20260904210042 | 96 | 266 | 4.0 | 12.0 | 0.00 | 0.00 | 0.00 | 49 | 1012.7 |
| 20260904210023 | 96 | 252 | 4.0 | 11.0 | 0.00 | 0.00 | 0.00 | 49 | 1011.6 |
| 20260904204535 | 96 | 270 | 5.0 | 11.0 | 0.00 | 0.00 | 0.00 | 46 | 1012.9 |
| 20260904203040 | 95 | 258 | 5.0 | 11.0 | 0.00 | 0.00 | 0.00 | 48 | 1013.1 |
| 20260904201539 | 96 | 265 | 5.0 | 9.0 | 0.00 | 0.00 | 0.00 | 49 | 1013.2 |
| 20260904200036 | 95 | 224 | 4.0 | 9.0 | 0.00 | 0.00 | 0.00 | 49 | 1013.3 |
| 20260904200015 | 96 | 190 | 4.0 | 8.0 | 0.00 | 0.00 | 0.00 | 53 | 1012.2 |
| 20260904194534 | 95 | 267 | 3.0 | 10.0 | 0.00 | 0.00 | 0.00 | 52 | 1013.5 |
| 20260904193043 | 94 | 287 | 5.0 | 13.0 | 0.00 | 0.00 | 0.00 | 54 | 1013.6 |